CZ-3B R/B, 63362

Orbit data source: Space-Track

CZ-3B R/B, 63362 is space debris in HEO originally from a launch on Wed, 26 Mar 2025 UTC launched from the Xichang Space Center, China (XSC). Debris objects in space refer to the collection of defunct objects orbiting the Earth. Examples of debris include non-operational satellites, rocket bodies, and fragments generated from explosions, collisions, or faulty payload assembly.

Loading next visibility...
Identifier
63362, 2025-062B
Orbit
HEO
Country
Flag of CNCN / PRC
Related business
Manufacturer
CALT
Mission
Spacecraft
Bus & Motor
CZ-3A STAGE 3, Unknown motor
Mass
~2,800 kg wet, ~2,800 kg dry
Launch date (UTC)
2025-03-26 (1 year ago)
Launch vehicle
Unknown
Launch site
Xichang Space Center, China (XSC)
Object type
Payload
Rocket body
Debris
Shape & HBR
Cyl + 1 Nozzle, 8.0 m
Radar Cross Section
32.704 m², Large (>1 m²)

Expand to show TLE details & history
Last TLE update: 11 hours ago

TLE from 11 hours ago
0 CZ-3B R/B
1 63362U 25062B   26171.39938948  .00024709  00000-0  12948-2 0  9993
2 63362  26.9137 204.4314 6687122 178.1805 186.8819  3.10254637 12522
Epoch: 2026-06-20T09:35Z
TLE epoch observation values (Epoch: 2026-06-20T09:35:07.251Z)
Latitude
-0.00003°
Longitude
152.04889°
Altitude
26,715.835 km
Speed
2.004 km/s
True Right ascension
13h 37m 46s
True Declination
0° 00' 00"
Sunlit
Object was in daylight at epoch
Visualization orbit readout
Latitude
Unknown
Longitude
Unknown
Altitude
Unknown
Speed
Unknown
Apparent Right ascension
Unknown
Apparent Declination
Unknown
Sunlit
N/A
Visualization observer readout
Local Sidereal Time
07:24:33
Azimuth
Unknown
Elevation
Unknown
Doppler factor
Unknown
Orbital elements
Apogee altitude
26,764.453 km
Perigee altitude
201.629 km
Semi-major axis
19,861.178 km
Eccentricity
0.66871
Inclination
26.9137°
RAAN
204.4314°
Arg. of periapsis
178.1805°
True anomaly
181.83882°
Mean anomaly
186.8819°
Eccentric anomaly
184.12551°
Mean motion
0.77542 °/min
Orbital period
464.27 mins
BSTAR
0.0012948
Loading maneuver chart data...
Computing Atmospheric mass density...
Loading historical data...
Loading historical data...
Loading historical data...
Loading historical data...
Loading historical data...
Loading historical data...
Loading historical data...
Other satellites on launch #62 in the year 2025 (2025-03-26 UTC)

Documentation

Showing up to 5 results
|